Weather in Zharenyy Bugor

Russia / Samara Oblast     53°32′39″N   50°16′48″E
temp.,
°C
wind,
m/s
gust,
m/s
humid.,
%
clouds,
%
prec.,
mm/h
press.,
hPa
HPBL,
m
23 january, sat
sat2301:00−16se1292100 0.0 102421
04:00−14se2494100 0.0 1024118
07:00−14sse4795100 0.3 1025264
10:00−12sse5994100 0.8 1025323
13:00−9sse61093100 0.4 1024350
16:00−8s5994100 0.6 1023312
19:00−5s3696100 0.8 1022207
22:00−1s3798100 1.4 1021189
24 january, sun
sun2401:00+1sw3999100 0.2 1022300
04:00+1sw4999100 0.3 1021240
07:00+1ssw3698100 0.0 1022195
10:00+1ssw37100100 0.0 1024258
13:00+1ssw49100100 0.0 1025314
16:00+1ssw4998100 0.0 1025290
19:00−1ssw5119299 0.0 1026282
22:00−2ssw4119399 0.0 1027295
25 january, mon
mon2501:00−2ssw4109499 0.0 1028314
04:00−2ssw499599 0.0 1029340
07:00−5s369687 0.0 1029164
10:00−5s379789 0.0 1030228
13:00−2s5797100 0.0 1029428
16:00−1sse5994100 0.0 1029534
19:00−1sse51094100 0.0 1029607
22:00−2sse51093100 0.0 1028536
26 january, tue
tue2601:00−2s51094100 0.0 1027548
04:00−1s51093100 0.0 1028618
07:00−1s4994100 0.0 1027532
10:00−2s5994100 0.0 1028599
13:00−2s6993100 0.0 1027549
16:00−3sse5893100 0.1 1027527
19:00−3sse51094100 0.0 1027501
22:00−4sse61194100 0.1 1026508
27 january, wed
wed2701:00−5sse51095100 0.1 1026503
04:00−5sse51194100 0.1 1025465
07:00−6sse61194100 0.0 1024411
10:00−5sse51194100 0.1 1024456
13:00−4sse61094100 0.0 1024438
16:00−4sse51093100 0.1 1024441
19:00−6sse51193100 0.0 1024404
22:00−6sse51194100 0.0 1023411